Radiation Dose at Monitoring Post of Fukushima Daini Nuclear Power Station
Date,Time,MP-1(microSv/h),MP-2(microSv/h),MP-3(microSv/h),MP-4(microSv/h),MP-5(microSv/h),MP-6(microSv/h),MP-7(microSv/h),Wind Direction,Wind Velocity(m/s),Rain
2016/12/21,00:00,0.385,0.232,0.403,0.372,0.341,0.193,0.165,northwest,2.7,No
2016/12/21,00:10,0.385,0.232,0.402,0.372,0.342,0.191,0.166,northwest,2.5,No
2016/12/21,00:20,0.383,0.233,0.401,0.371,0.341,0.193,0.165,northwest,2.5,No
2016/12/21,00:30,0.384,0.233,0.401,0.371,0.341,0.192,0.165,northwest,3.1,No
2016/12/21,00:40,0.384,0.233,0.401,0.374,0.342,0.192,0.164,northwest,3.7,No
2016/12/21,00:50,0.385,0.232,0.400,0.372,0.342,0.192,0.165,north-northwest,3.4,No
2016/12/21,01:00,0.384,0.232,0.402,0.371,0.340,0.193,0.164,north,3.2,No
2016/12/21,01:10,0.384,0.233,0.401,0.374,0.340,0.193,0.165,north,4.6,No
2016/12/21,01:20,0.386,0.233,0.400,0.372,0.341,0.192,0.165,north-northwest,5.8,No
2016/12/21,01:30,0.384,0.233,0.401,0.372,0.342,0.191,0.164,north,5.0,No
2016/12/21,01:40,0.384,0.232,0.401,0.373,0.341,0.192,0.165,north,3.6,No
2016/12/21,01:50,0.385,0.233,0.401,0.373,0.342,0.193,0.165,north-northeast,3.1,No
2016/12/21,02:00,0.386,0.233,0.402,0.372,0.340,0.193,0.165,north,2.9,No
2016/12/21,02:10,0.383,0.232,0.403,0.373,0.341,0.194,0.165,north,2.2,No
2016/12/21,02:20,0.386,0.233,0.401,0.374,0.342,0.193,0.165,north-northwest,3.3,No
2016/12/21,02:30,0.385,0.233,0.402,0.373,0.342,0.192,0.165,northwest,2.1,No
2016/12/21,02:40,0.384,0.232,0.403,0.372,0.340,0.192,0.166,north-northwest,2.0,No
2016/12/21,02:50,0.385,0.233,0.400,0.373,0.342,0.192,0.165,northwest,1.7,No
2016/12/21,03:00,0.386,0.233,0.401,0.371,0.341,0.192,0.166,northwest,1.9,No
2016/12/21,03:10,0.384,0.232,0.402,0.372,0.341,0.193,0.165,northwest,1.6,No
2016/12/21,03:20,0.382,0.232,0.401,0.372,0.341,0.193,0.164,north-northwest,1.9,No
2016/12/21,03:30,0.386,0.233,0.401,0.373,0.343,0.192,0.164,north-northwest,3.0,No
2016/12/21,03:40,0.385,0.231,0.402,0.372,0.341,0.192,0.165,west-northwest,2.2,No
2016/12/21,03:50,0.384,0.233,0.402,0.372,0.341,0.191,0.165,west,2.5,No
2016/12/21,04:00,0.384,0.232,0.400,0.371,0.340,0.192,0.165,northwest,1.9,No
2016/12/21,04:10,0.384,0.232,0.400,0.372,0.341,0.192,0.165,-,CALM,No
2016/12/21,04:20,0.384,0.233,0.403,0.372,0.341,0.192,0.165,north-northeast,4.7,No
2016/12/21,04:30,0.384,0.232,0.402,0.372,0.340,0.192,0.164,north,5.0,No
2016/12/21,04:40,0.384,0.233,0.400,0.373,0.340,0.193,0.165,north,3.9,No
2016/12/21,04:50,0.386,0.233,0.402,0.372,0.341,0.193,0.166,north,3.6,No
2016/12/21,05:00,0.384,0.232,0.403,0.373,0.340,0.192,0.166,north,4.0,No
2016/12/21,05:10,0.384,0.233,0.402,0.373,0.341,0.194,0.164,north,4.8,No
2016/12/21,05:20,0.385,0.233,0.401,0.372,0.341,0.193,0.165,north,3.8,No
2016/12/21,05:30,0.384,0.232,0.404,0.373,0.341,0.193,0.166,north,4.4,No
2016/12/21,05:40,0.384,0.233,0.400,0.373,0.340,0.192,0.165,north,4.1,No
2016/12/21,05:50,0.385,0.232,0.402,0.372,0.341,0.193,0.165,north,3.1,No
2016/12/21,06:00,0.385,0.233,0.402,0.372,0.341,0.193,0.164,north,2.8,No
2016/12/21,06:10,0.384,0.233,0.403,0.373,0.341,0.192,0.164,north,2.1,No
2016/12/21,06:20,0.384,0.232,0.402,0.373,0.340,0.192,0.164,north-northeast,1.6,No
2016/12/21,06:30,0.385,0.232,0.401,0.371,0.340,0.194,0.165,north-northeast,1.3,No
2016/12/21,06:40,0.384,0.232,0.402,0.372,0.340,0.192,0.165,north,0.8,No
2016/12/21,06:50,0.383,0.232,0.400,0.373,0.341,0.192,0.165,north,0.5,No
2016/12/21,07:00,0.384,0.232,0.400,0.372,0.341,0.193,0.165,northeast,1.1,No
2016/12/21,07:10,0.386,0.233,0.403,0.370,0.341,0.191,0.164,northeast,1.3,No
2016/12/21,07:20,0.383,0.231,0.402,0.372,0.341,0.191,0.165,north-northeast,0.7,No
2016/12/21,07:30,0.384,0.233,0.402,0.373,0.340,0.192,0.165,east,0.8,No
2016/12/21,07:40,0.386,0.232,0.401,0.371,0.340,0.193,0.163,east,1.0,No
2016/12/21,07:50,0.385,0.233,0.402,0.371,0.342,0.191,0.164,-,CALM,No
2016/12/21,08:00,0.384,0.232,0.403,0.372,0.341,0.192,0.164,north-northeast,0.8,No
2016/12/21,08:10,0.385,0.233,0.400,0.370,0.341,0.192,0.165,northeast,1.4,No
2016/12/21,08:20,0.385,0.232,0.403,0.371,0.342,0.192,0.165,northeast,1.2,No
2016/12/21,08:30,0.383,0.232,0.401,0.370,0.341,0.192,0.165,north-northeast,1.7,No
2016/12/21,08:40,0.382,0.233,0.400,0.373,0.341,0.192,0.165,north-northeast,1.6,No
2016/12/21,08:50,0.384,0.234,0.404,0.369,0.344,0.193,0.164,northeast,0.8,No
2016/12/21,09:00,0.385,0.234,0.400,0.371,0.341,0.192,0.165,northeast,1.1,No
2016/12/21,09:10,0.384,0.233,0.400,0.370,0.341,0.192,0.164,north-northeast,1.4,No
2016/12/21,09:20,0.386,0.232,0.402,0.370,0.342,0.193,0.164,northeast,1.5,No
2016/12/21,09:30,0.383,0.232,0.401,0.371,0.340,0.192,0.164,northeast,1.7,No
2016/12/21,09:40,0.383,0.231,0.400,0.371,0.341,0.194,0.164,east-northeast,2.2,No
2016/12/21,09:50,0.386,0.231,0.402,0.371,0.340,0.193,0.165,northeast,2.2,No
2016/12/21,10:00,0.384,0.232,0.398,0.370,0.341,0.193,0.164,northeast,3.3,No
2016/12/21,10:10,0.383,0.233,0.401,0.369,0.339,0.192,0.165,northeast,3.2,No
2016/12/21,10:20,0.382,0.232,0.399,0.373,0.341,0.192,0.165,northeast,2.9,No
2016/12/21,10:30,0.381,0.233,0.399,0.370,0.339,0.193,0.164,east-northeast,1.9,No
2016/12/21,10:40,0.382,0.231,0.402,0.372,0.341,0.193,0.165,northeast,2.1,No
2016/12/21,10:50,0.381,0.234,0.397,0.370,0.339,0.192,0.166,northeast,2.1,No
2016/12/21,11:00,0.383,0.232,0.401,0.374,0.341,0.192,0.165,east-northeast,2.1,No
2016/12/21,11:10,0.383,0.231,0.400,0.370,0.340,0.194,0.165,northeast,1.6,No
2016/12/21,11:20,0.384,0.232,0.403,0.374,0.342,0.193,0.164,east-northeast,2.5,No
2016/12/21,11:30,0.383,0.231,0.400,0.370,0.341,0.192,0.166,east-northeast,1.8,No
2016/12/21,11:40,0.383,0.232,0.399,0.372,0.340,0.193,0.165,east-northeast,2.4,No
2016/12/21,11:50,0.384,0.231,0.400,0.370,0.340,0.193,0.165,east-northeast,2.6,No
2016/12/21,12:00,0.381,0.234,0.399,0.373,0.341,0.192,0.165,east-northeast,2.5,No
2016/12/21,12:10,0.384,0.232,0.400,0.370,0.342,0.192,0.165,northeast,1.8,No
2016/12/21,12:20,0.382,0.233,0.400,0.371,0.338,0.193,0.164,east-northeast,2.2,No
2016/12/21,12:30,0.382,0.231,0.398,0.374,0.342,0.193,0.165,east-northeast,2.4,No
2016/12/21,12:40,0.384,0.234,0.402,0.369,0.338,0.193,0.164,east-northeast,2.3,No
2016/12/21,12:50,0.381,0.233,0.397,0.372,0.342,0.192,0.165,east-northeast,1.5,No
2016/12/21,13:00,0.384,0.234,0.401,0.369,0.340,0.193,0.165,east-northeast,1.4,No
2016/12/21,13:10,0.382,0.233,0.399,0.370,0.343,0.192,0.163,east,2.5,No
2016/12/21,13:20,0.384,0.232,0.400,0.371,0.342,0.193,0.165,east-southeast,1.6,No
2016/12/21,13:30,0.382,0.232,0.400,0.372,0.343,0.193,0.163,southeast,1.0,No
2016/12/21,13:40,0.386,0.231,0.397,0.373,0.340,0.194,0.165,southeast,1.9,No
2016/12/21,13:50,0.383,0.233,0.401,0.370,0.342,0.192,0.168,southeast,1.7,No
2016/12/21,14:00,0.387,0.231,0.399,0.374,0.341,0.194,0.166,south-southeast,1.1,No
2016/12/21,14:10,0.383,0.233,0.404,0.371,0.342,0.194,0.165,southeast,0.5,No
2016/12/21,14:20,0.385,0.232,0.399,0.373,0.339,0.191,0.163,southeast,0.8,No
2016/12/21,14:30,0.384,0.231,0.400,0.372,0.341,0.193,0.165,south,1.3,No
2016/12/21,14:40,0.384,0.233,0.400,0.374,0.340,0.192,0.164,southeast,1.1,No
2016/12/21,14:50,0.384,0.232,0.401,0.371,0.342,0.193,0.165,south-southeast,1.1,No
2016/12/21,15:00,0.385,0.231,0.401,0.374,0.341,0.193,0.166,south,1.6,No
2016/12/21,15:10,0.386,0.233,0.400,0.372,0.341,0.192,0.164,south,1.1,No
2016/12/21,15:20,0.385,0.233,0.402,0.373,0.343,0.193,0.166,south-southeast,1.4,No
2016/12/21,15:30,0.384,0.233,0.400,0.373,0.341,0.191,0.166,south-southeast,1.0,No
2016/12/21,15:40,0.383,0.233,0.401,0.375,0.343,0.193,0.165,-,CALM,No
2016/12/21,15:50,0.382,0.232,0.400,0.372,0.340,0.192,0.164,-,CALM,No
2016/12/21,16:00,0.386,0.233,0.403,0.372,0.344,0.193,0.165,-,CALM,No
2016/12/21,16:10,0.383,0.232,0.400,0.372,0.341,0.192,0.164,-,CALM,No
2016/12/21,16:20,0.383,0.233,0.402,0.374,0.342,0.192,0.164,east-southeast,0.8,No
2016/12/21,16:30,0.385,0.234,0.400,0.372,0.344,0.191,0.165,east,0.5,No
2016/12/21,16:40,0.384,0.232,0.400,0.373,0.341,0.192,0.166,-,CALM,No
2016/12/21,16:50,0.384,0.233,0.404,0.373,0.344,0.193,0.165,south-southwest,0.7,No
2016/12/21,17:00,0.387,0.232,0.400,0.373,0.342,0.192,0.165,west-southwest,0.6,No
2016/12/21,17:10,0.384,0.232,0.403,0.374,0.340,0.193,0.166,west-southwest,1.1,No
2016/12/21,17:20,0.384,0.232,0.402,0.375,0.343,0.193,0.165,west-southwest,1.8,No
2016/12/21,17:30,0.384,0.232,0.402,0.371,0.342,0.193,0.165,west-southwest,1.9,No
2016/12/21,17:40,0.384,0.234,0.404,0.373,0.341,0.192,0.166,west-southwest,2.2,No
2016/12/21,17:50,0.385,0.233,0.401,0.373,0.343,0.192,0.166,southwest,1.6,No
2016/12/21,18:00,0.384,0.233,0.401,0.373,0.341,0.192,0.165,southwest,1.4,No
2016/12/21,18:10,0.383,0.231,0.403,0.376,0.341,0.192,0.166,west-southwest,1.4,No
2016/12/21,18:20,0.384,0.232,0.400,0.373,0.344,0.193,0.166,northwest,1.2,No
2016/12/21,18:30,0.385,0.233,0.403,0.372,0.342,0.192,0.166,northwest,0.5,No
2016/12/21,18:40,0.385,0.233,0.402,0.375,0.343,0.192,0.165,west-northwest,0.7,No
2016/12/21,18:50,0.383,0.232,0.399,0.372,0.342,0.193,0.165,-,CALM,No
2016/12/21,19:00,0.384,0.232,0.405,0.371,0.339,0.193,0.166,-,CALM,No
2016/12/21,19:10,0.384,0.233,0.400,0.374,0.341,0.193,0.165,-,CALM,No
2016/12/21,19:20,0.385,0.233,0.401,0.373,0.344,0.193,0.165,southwest,0.6,No
2016/12/21,19:30,0.385,0.233,0.401,0.371,0.342,0.192,0.165,west-southwest,0.8,No
2016/12/21,19:40,0.385,0.233,0.403,0.375,0.341,0.192,0.164,southwest,2.2,No
2016/12/21,19:50,0.386,0.232,0.401,0.372,0.343,0.193,0.165,south-southwest,1.2,No
2016/12/21,20:00,0.384,0.232,0.404,0.374,0.341,0.194,0.165,west-southwest,1.1,No
2016/12/21,20:10,0.386,0.233,0.401,0.375,0.341,0.192,0.166,west-southwest,2.7,No
2016/12/21,20:20,0.384,0.232,0.402,0.375,0.344,0.194,0.166,west-southwest,3.5,No
2016/12/21,20:30,0.386,0.233,0.403,0.374,0.341,0.193,0.166,west-southwest,3.8,No
2016/12/21,20:40,0.384,0.235,0.402,0.374,0.342,0.192,0.165,west-southwest,4.0,No
2016/12/21,20:50,0.385,0.233,0.403,0.373,0.342,0.193,0.166,west-southwest,4.7,No
2016/12/21,21:00,0.384,0.234,0.402,0.374,0.341,0.193,0.165,southwest,4.5,No
2016/12/21,21:10,0.385,0.233,0.401,0.374,0.342,0.194,0.166,south-southwest,4.0,No
2016/12/21,21:20,0.385,0.233,0.402,0.375,0.342,0.194,0.165,south,2.9,No
2016/12/21,21:30,0.385,0.233,0.403,0.375,0.342,0.193,0.165,south,2.2,No
2016/12/21,21:40,0.386,0.234,0.402,0.376,0.342,0.193,0.165,south,3.2,No
2016/12/21,21:50,0.385,0.234,0.403,0.373,0.344,0.194,0.165,south-southwest,3.8,No
2016/12/21,22:00,0.385,0.234,0.405,0.375,0.341,0.193,0.167,southwest,4.1,No
2016/12/21,22:10,0.384,0.232,0.402,0.375,0.341,0.194,0.166,southwest,3.4,No
2016/12/21,22:20,0.386,0.233,0.402,0.374,0.343,0.192,0.166,southwest,2.6,No
2016/12/21,22:30,0.387,0.233,0.404,0.374,0.342,0.193,0.166,west-southwest,3.3,No
2016/12/21,22:40,0.385,0.233,0.403,0.375,0.342,0.194,0.166,southwest,2.5,No
2016/12/21,22:50,0.385,0.233,0.400,0.374,0.342,0.195,0.167,southwest,3.1,No
2016/12/21,23:00,0.386,0.234,0.404,0.375,0.341,0.194,0.166,west-southwest,2.2,No
2016/12/21,23:10,0.384,0.233,0.401,0.376,0.342,0.193,0.167,west-southwest,2.9,No
2016/12/21,23:20,0.385,0.233,0.402,0.374,0.343,0.194,0.166,southwest,3.4,No
2016/12/21,23:30,0.385,0.233,0.402,0.375,0.342,0.194,0.166,south-southwest,3.7,No
2016/12/21,23:40,0.386,0.233,0.403,0.376,0.341,0.194,0.166,south-southwest,3.0,No
2016/12/21,23:50,0.384,0.233,0.402,0.373,0.343,0.194,0.166,southwest,3.6,No
